�N����,����,�~����,�C��,���x,�C��,����,���ϕ���,�ő�u�ԕ���,�ő厞����,���˗�,�I�_���x,�n�����x,�ő啗���N��,DTYPE
"17/08/13","00:10",0.0,22.0,90.1,1002.6,331.9,1.2,1.9,330.7,0.00,20.3,25.8,"00:06:56",1
"17/08/13","00:20",0.0,22.2,89.7,1002.6,336.1,0.8,1.8,318.7,0.00,20.5,26.0,"00:10:40",1
"17/08/13","00:30",0.0,22.1,89.5,1002.9,302.8,0.8,1.4,302.4,0.00,20.3,25.7,"00:23:12",1
"17/08/13","00:40",0.0,22.0,90.1,1002.4,322.0,1.1,2.1,318.8,0.00,20.3,25.9,"00:35:04",1
"17/08/13","00:50",0.0,22.2,89.9,1002.4,323.4,0.7,1.7,345.1,0.00,20.5,25.8,"00:41:52",1
"17/08/13","01:00",0.0,22.3,89.6,1002.4,344.1,0.8,1.8,337.7,0.00,20.5,25.8,"00:57:52",1
"17/08/13","01:10",0.0,22.2,89.5,1002.4,311.7,1.1,1.7,309.2,0.00,20.4,25.8,"01:04:24",1
"17/08/13","01:20",0.0,22.1,89.9,1002.4,329.9,1.0,1.6,308.9,0.00,20.4,25.6,"01:10:08",1
"17/08/13","01:30",0.0,22.2,89.8,1002.4,330.7,0.6,2.2,325.1,0.00,20.5,25.7,"01:29:36",1
"17/08/13","01:40",0.0,22.1,90.1,1002.2,315.2,0.7,1.4,264.4,0.00,20.4,25.5,"01:33:28",1
"17/08/13","01:50",0.0,22.1,90.2,1002.2,324.7,1.1,1.8,336.3,0.00,20.5,25.6,"01:42:40",1
"17/08/13","02:00",0.0,22.0,90.4,1002.4,303.0,0.7,1.3,316.9,0.00,20.4,25.5,"01:50:16",1
"17/08/13","02:10",0.0,21.9,90.7,1002.6,302.2,1.1,1.6,314.9,0.00,20.4,25.6,"02:01:12",1
"17/08/13","02:20",0.0,21.8,91.2,1002.4,322.6,0.7,1.2,330.1,0.00,20.3,25.5,"02:13:52",1
"17/08/13","02:30",0.0,21.8,91.4,1002.2,286.5,0.3,0.9,258.5,0.00,20.4,25.4,"02:22:24",1
"17/08/13","02:40",0.0,21.8,91.8,1002.2,314.0,0.3,1.2,319.4,0.00,20.4,25.3,"02:38:48",1
"17/08/13","02:50",0.0,21.9,91.7,1002.4,293.8,0.8,1.6,308.8,0.00,20.5,25.4,"02:48:32",1
"17/08/13","03:00",0.0,21.9,92.1,1002.2,326.1,1.3,1.9,330.5,0.00,20.6,25.2,"02:59:28",1
"17/08/13","03:10",0.0,21.8,92.1,1002.6,325.1,1.3,2.0,328.4,0.00,20.5,25.3,"03:01:28",1
"17/08/13","03:20",0.0,21.8,92.2,1002.6,337.6,1.2,2.1,341.6,0.00,20.5,25.2,"03:10:02",1
"17/08/13","03:30",0.0,21.7,92.0,1002.6,322.6,1.0,1.7,349.0,0.00,20.4,25.2,"03:20:40",1
"17/08/13","03:40",0.0,21.6,92.0,1002.9,313.5,0.7,1.7,323.6,0.00,20.3,25.2,"03:31:12",1
"17/08/13","03:50",0.0,21.4,92.3,1002.4,314.9,0.5,1.4,331.0,0.00,20.1,25.2,"03:40:24",1
"17/08/13","04:00",0.0,21.4,92.7,1002.6,342.3,0.5,1.7,332.3,0.00,20.2,25.3,"03:51:44",1
"17/08/13","04:10",0.0,21.4,92.6,1003.1,287.7,0.8,1.8,316.9,0.00,20.2,25.2,"04:01:20",1
"17/08/13","04:20",0.0,21.3,92.8,1003.1,320.9,1.3,1.8,317.3,0.00,20.1,25.1,"04:11:44",1
"17/08/13","04:30",0.0,21.2,93.1,1002.6,322.3,1.1,1.8,341.2,0.00,20.1,25.1,"04:27:12",1
"17/08/13","04:40",0.0,21.2,93.1,1002.9,330.0,1.3,2.1,335.6,0.00,20.1,25.0,"04:38:48",1
"17/08/13","04:50",0.0,21.1,93.1,1002.9,324.4,1.3,2.6,331.4,0.00,20.0,25.0,"04:44:08",1
"17/08/13","05:00",0.0,21.1,93.2,1003.1,333.2,1.3,1.9,333.2,0.00,20.0,25.0,"04:50:08",1
"17/08/13","05:10",0.0,21.0,93.3,1002.9,323.7,1.5,1.8,335.4,0.00,19.9,25.1,"05:08:56",1
"17/08/13","05:20",0.0,21.1,93.7,1003.4,329.2,1.6,2.6,324.2,0.00,20.1,24.8,"05:19:28",1
"17/08/13","05:30",0.0,21.5,93.5,1003.1,323.5,2.1,2.8,326.4,0.00,20.4,25.0,"05:23:28",1
"17/08/13","05:40",0.0,21.7,92.9,1003.1,319.8,1.6,2.5,328.9,0.00,20.5,24.7,"05:30:32",1
"17/08/13","05:50",0.0,21.7,92.8,1003.1,319.5,1.6,2.6,325.8,0.00,20.5,25.0,"05:43:36",1
"17/08/13","06:00",0.0,21.8,92.7,1003.1,320.8,2.0,3.2,333.5,0.00,20.6,24.7,"05:57:44",1
"17/08/13","06:10",0.0,22.0,92.3,1003.4,321.7,1.6,2.4,341.0,0.00,20.7,24.6,"06:07:36",1
"17/08/13","06:20",0.0,22.4,92.2,1003.1,328.8,1.7,3.1,329.0,0.01,21.1,24.7,"06:17:28",1
"17/08/13","06:30",0.0,23.0,90.7,1003.1,332.9,1.3,2.6,325.2,0.02,21.4,24.9,"06:27:20",1
"17/08/13","06:40",0.0,23.7,89.1,1003.1,336.0,1.1,2.2,342.5,0.04,21.8,24.7,"06:35:28",1
"17/08/13","06:50",0.0,24.5,85.6,1003.6,340.1,1.2,2.7,330.9,0.06,22.0,24.7,"06:41:44",1
"17/08/13","07:00",0.0,25.1,83.1,1003.6,352.8,1.1,2.9,335.5,0.08,22.1,24.9,"06:57:12",1
"17/08/13","07:10",0.0,25.9,78.9,1003.6,11.9,0.7,1.7,352.1,0.10,22.0,24.9,"07:01:36",1
"17/08/13","07:20",0.0,26.3,76.5,1003.4,338.6,0.7,2.1,230.6,0.11,21.9,25.1,"07:19:52",1
"17/08/13","07:30",0.0,26.3,75.7,1003.1,273.4,0.5,1.7,215.8,0.10,21.7,25.1,"07:20:08",1
"17/08/13","07:40",0.0,26.7,75.4,1002.9,302.4,0.5,1.2,122.8,0.11,22.0,25.1,"07:37:12",1
"17/08/13","07:50",0.0,26.5,76.0,1003.1,316.3,0.6,2.1,341.0,0.06,22.0,25.1,"07:41:04",1
"17/08/13","08:00",0.0,25.9,78.3,1002.9,303.7,0.8,2.1,338.8,0.06,21.9,25.5,"07:54:48",1
"17/08/13","08:10",0.0,26.6,75.9,1002.6,317.0,0.8,2.4,355.9,0.18,22.0,25.5,"08:02:56",1
"17/08/13","08:20",0.0,27.2,73.6,1002.9,260.8,0.7,1.6,247.3,0.22,22.1,25.3,"08:13:12",1
"17/08/13","08:30",0.0,27.8,70.4,1002.2,291.1,0.8,1.6,346.1,0.27,22.0,25.6,"08:20:02",1
"17/08/13","08:40",0.0,28.5,69.5,1002.4,287.0,0.7,1.7,227.0,0.31,22.4,25.6,"08:37:44",1
"17/08/13","08:50",0.0,29.0,66.1,1002.9,189.7,0.7,1.8,218.5,0.35,22.1,25.8,"08:41:28",1
"17/08/13","09:00",0.0,29.0,66.5,1002.9,277.5,0.7,2.1,330.5,0.39,22.2,25.9,"08:51:04",1
"17/08/13","09:10",0.0,28.8,63.9,1003.4,50.0,0.8,2.5,337.9,0.26,21.3,26.3,"09:09:28",1
"17/08/13","09:20",0.0,29.3,64.8,1003.6,351.6,1.7,5.0,357.9,0.40,22.0,26.2,"09:19:36",1
"17/08/13","09:30",0.0,28.8,65.8,1003.1,340.7,2.2,4.5,337.7,0.41,21.8,26.5,"09:22:08",1
"17/08/13","09:40",0.0,28.8,65.2,1003.1,331.1,1.7,4.2,341.1,0.38,21.7,26.4,"09:39:44",1
"17/08/13","09:50",0.0,30.1,60.3,1002.9,354.4,1.5,3.6,356.6,0.45,21.6,26.7,"09:49:52",1
"17/08/13","10:00",0.0,30.0,63.0,1002.9,349.3,1.8,7.3,322.5,0.47,22.2,26.9,"09:54:48",1
"17/08/13","10:10",0.0,30.9,60.5,1003.4,26.9,1.3,4.0,350.2,0.49,22.4,27.1,"10:03:12",1
"17/08/13","10:20",0.0,30.8,59.2,1003.8,17.4,1.6,4.5,346.6,0.51,22.0,26.9,"10:18:24",1
"17/08/13","10:30",0.0,30.6,58.8,1003.8,10.3,1.5,3.6,4.7,0.48,21.7,27.5,"10:26:56",1
"17/08/13","10:40",0.0,30.5,60.6,1003.1,349.8,2.0,4.0,321.0,0.51,22.1,27.6,"10:35:04",1
"17/08/13","10:50",0.0,30.7,58.0,1003.1,345.7,2.0,4.3,352.1,0.55,21.5,27.8,"10:42:00",1
"17/08/13","11:00",0.0,31.0,61.8,1002.9,331.9,1.6,3.5,338.8,0.57,22.9,27.9,"10:50:56",1
"17/08/13","11:10",0.0,31.4,56.4,1003.4,357.9,1.7,4.8,342.0,0.58,21.7,28.3,"11:00:56",1
"17/08/13","11:20",0.0,31.2,57.6,1003.1,347.0,2.0,3.5,340.2,0.59,21.9,28.4,"11:11:52",1
"17/08/13","11:30",0.0,31.7,56.6,1003.1,350.4,1.3,3.2,332.4,0.59,22.1,28.7,"11:25:12",1
"17/08/13","11:40",0.0,31.7,53.3,1003.6,5.2,1.2,3.2,348.7,0.50,21.1,29.0,"11:34:40",1
"17/08/13","11:50",0.0,30.5,58.7,1002.6,359.5,1.3,4.8,344.6,0.22,21.5,28.9,"11:45:20",1
"17/08/13","12:00",0.0,30.2,56.4,1002.6,48.4,1.1,3.2,8.3,0.17,20.6,29.1,"11:52:32",1
"17/08/13","12:10",0.0,30.5,56.9,1002.4,18.2,0.8,2.0,37.8,0.18,21.0,28.9,"12:02:32",1
"17/08/13","12:20",0.0,31.0,52.9,1002.4,65.4,1.0,2.9,72.8,0.24,20.3,29.1,"12:10:16",1
"17/08/13","12:30",0.0,31.8,49.7,1002.4,103.8,0.8,2.9,144.1,0.42,20.0,29.3,"12:20:16",1
"17/08/13","12:40",0.0,31.2,54.4,1002.4,343.7,0.6,1.3,73.3,0.21,20.9,29.0,"12:30:24",1
"17/08/13","12:50",0.0,30.5,56.7,1002.2,329.8,1.2,2.9,338.1,0.23,21.0,29.2,"12:43:44",1
"17/08/13","13:00",0.0,30.4,60.2,1001.7,222.1,1.2,3.4,227.0,0.19,21.9,29.1,"12:58:16",1
"17/08/13","13:10",0.0,30.1,59.2,1001.5,251.2,1.3,3.4,229.4,0.19,21.3,29.2,"13:01:20",1
"17/08/13","13:20",0.0,30.0,61.4,1001.5,310.0,1.3,3.5,346.3,0.19,21.8,29.1,"13:17:28",1
"17/08/13","13:30",0.0,30.0,61.0,1001.7,290.4,1.0,2.5,359.2,0.16,21.7,29.0,"13:20:56",1
"17/08/13","13:40",0.0,29.9,61.0,1001.2,332.8,1.6,4.5,348.6,0.14,21.6,29.0,"13:37:52",1
"17/08/13","13:50",0.0,29.8,61.1,1001.0,353.6,1.5,3.7,340.4,0.16,21.5,29.1,"13:46:24",1
"17/08/13","14:00",0.0,30.1,60.2,1001.2,351.6,1.3,3.1,336.2,0.17,21.6,29.0,"13:52:40",1
"17/08/13","14:10",0.0,30.3,58.9,1001.0,318.8,1.2,3.9,343.1,0.21,21.4,29.1,"14:05:28",1
"17/08/13","14:20",0.0,30.5,58.7,1001.0,301.9,0.8,2.0,219.0,0.24,21.5,29.1,"14:15:36",1
"17/08/13","14:30",0.0,31.2,58.6,1001.5,344.4,1.1,2.8,354.2,0.29,22.2,28.9,"14:27:04",1
"17/08/13","14:40",0.0,32.0,56.2,1001.2,294.2,0.6,2.0,334.8,0.39,22.2,29.0,"14:38:56",1
"17/08/13","14:50",0.0,32.5,53.4,1001.9,319.9,1.1,2.6,6.7,0.48,21.8,29.3,"14:47:20",1
"17/08/13","15:00",0.0,31.5,56.4,1001.7,351.4,1.3,2.8,334.0,0.27,21.8,29.5,"14:58:48",1
"17/08/13","15:10",0.0,31.0,54.3,1001.5,3.5,1.7,4.3,350.2,0.26,20.7,29.3,"15:05:20",1
"17/08/13","15:20",0.0,31.7,52.7,1001.7,12.9,1.6,3.6,36.7,0.33,20.9,29.4,"15:10:24",1
"17/08/13","15:30",0.0,31.7,55.0,1001.2,12.9,1.7,3.4,349.3,0.33,21.6,29.4,"15:24:32",1
"17/08/13","15:40",0.0,31.5,53.6,1001.7,1.3,1.6,4.5,344.0,0.29,21.0,29.4,"15:34:00",1
"17/08/13","15:50",0.0,31.2,56.4,1001.7,359.2,1.7,3.9,348.7,0.25,21.5,29.4,"15:47:52",1
"17/08/13","16:00",0.0,30.7,57.0,1001.7,349.7,1.6,4.1,19.3,0.21,21.2,29.4,"15:55:52",1
"17/08/13","16:10",0.0,30.9,54.7,1001.5,359.3,1.5,3.1,348.1,0.20,20.8,29.5,"16:02:08",1
"17/08/13","16:20",0.0,31.0,55.3,1001.0,343.3,1.6,3.9,344.6,0.21,21.0,29.4,"16:10:02",1
"17/08/13","16:30",0.0,30.9,55.1,1001.0,344.4,2.0,3.7,355.2,0.22,20.9,29.3,"16:23:04",1
"17/08/13","16:40",0.0,30.9,57.2,1001.0,350.9,2.1,4.1,350.4,0.23,21.5,29.5,"16:35:52",1
"17/08/13","16:50",0.0,30.4,58.7,1000.8,356.4,2.1,3.4,347.5,0.16,21.4,29.5,"16:45:12",1
"17/08/13","17:00",0.0,30.4,59.5,1000.8,359.3,1.7,5.7,335.3,0.15,21.7,29.3,"16:53:12",1
"17/08/13","17:10",0.0,30.0,59.0,1000.8,5.4,1.6,3.3,354.1,0.11,21.2,29.2,"17:09:36",1
"17/08/13","17:20",0.0,30.6,58.9,1000.8,2.4,1.5,3.4,357.7,0.15,21.7,29.3,"17:11:44",1
"17/08/13","17:30",0.0,30.8,58.0,1001.0,358.8,1.7,3.2,66.0,0.13,21.6,29.1,"17:21:52",1
"17/08/13","17:40",0.0,30.8,59.6,1000.8,348.6,1.3,2.9,334.1,0.13,22.1,29.2,"17:35:52",1
"17/08/13","17:50",0.0,30.2,59.1,1000.5,343.1,2.0,4.7,326.2,0.08,21.4,29.2,"17:45:28",1
"17/08/13","18:00",0.0,30.0,61.0,1001.0,351.4,1.7,4.0,359.9,0.07,21.7,29.0,"17:50:32",1
"17/08/13","18:10",0.0,29.7,60.1,1000.8,346.6,1.8,3.9,341.2,0.04,21.2,28.8,"18:00:40",1
"17/08/13","18:20",0.0,29.1,61.4,1000.5,356.6,2.0,5.0,337.4,0.01,21.0,28.8,"18:17:12",1
"17/08/13","18:30",0.0,28.4,63.8,1000.0,347.5,2.1,5.1,323.0,0.00,20.9,28.8,"18:20:02",1
"17/08/13","18:40",0.0,27.8,66.1,1000.5,342.6,2.3,4.9,336.5,0.00,20.9,28.9,"18:32:32",1
"17/08/13","18:50",0.0,27.3,67.7,1001.0,345.3,1.8,3.4,342.4,0.00,20.8,28.6,"18:45:44",1
"17/08/13","19:00",0.0,27.1,68.4,1001.2,342.2,2.0,4.2,357.6,0.00,20.8,28.4,"18:50:24",1
"17/08/13","19:10",0.0,26.9,69.2,1001.2,343.3,2.1,4.9,352.7,0.00,20.8,28.4,"19:07:28",1
"17/08/13","19:20",0.0,26.7,69.6,1001.5,351.6,2.1,4.4,25.6,0.00,20.7,28.2,"19:12:08",1
"17/08/13","19:30",0.0,26.5,70.8,1001.5,350.3,2.1,5.0,340.3,0.00,20.8,28.2,"19:23:04",1
"17/08/13","19:40",0.0,26.3,71.9,1001.5,340.2,1.8,4.3,326.6,0.00,20.9,28.1,"19:30:16",1
"17/08/13","19:50",0.0,26.0,73.1,1001.7,344.9,1.5,3.2,333.7,0.00,20.8,27.8,"19:45:04",1
"17/08/13","20:00",0.0,25.7,73.0,1001.9,348.3,1.3,2.1,347.1,0.00,20.5,27.7,"19:51:12",1
"17/08/13","20:10",0.0,25.4,74.1,1002.2,344.1,1.3,4.2,351.6,0.00,20.5,27.6,"20:00:48",1
"17/08/13","20:20",0.0,25.2,75.3,1002.2,351.9,1.1,3.1,334.2,0.00,20.6,27.6,"20:11:44",1
"17/08/13","20:30",0.0,25.1,75.2,1002.6,356.2,1.1,2.6,344.5,0.00,20.4,27.4,"20:28:40",1
"17/08/13","20:40",0.0,25.4,74.2,1002.6,4.9,1.3,2.5,349.6,0.00,20.5,27.3,"20:35:20",1
"17/08/13","20:50",0.0,25.3,74.8,1002.4,349.7,1.2,2.2,339.0,0.00,20.5,27.4,"20:43:52",1
"17/08/13","21:00",0.0,25.0,75.8,1002.4,339.6,1.3,2.5,333.9,0.00,20.5,27.3,"20:52:08",1
"17/08/13","21:10",0.0,24.9,76.7,1002.9,332.0,1.2,2.2,31.6,0.00,20.6,27.1,"21:02:40",1
"17/08/13","21:20",0.0,24.6,77.9,1002.9,298.2,0.6,1.3,302.0,0.00,20.5,27.2,"21:12:24",1
"17/08/13","21:30",0.0,24.5,78.5,1002.6,319.1,0.6,1.3,341.5,0.00,20.6,26.8,"21:29:36",1
"17/08/13","21:40",0.0,24.4,79.6,1002.6,327.3,1.0,1.4,332.6,0.00,20.7,26.9,"21:30:40",1
"17/08/13","21:50",0.0,24.0,80.7,1002.6,311.0,1.0,1.8,327.2,0.00,20.5,26.9,"21:49:04",1
"17/08/13","22:00",0.0,23.9,81.7,1002.9,323.5,1.1,1.7,329.9,0.00,20.6,26.8,"21:51:44",1
"17/08/13","22:10",0.0,23.7,81.7,1002.9,284.4,0.8,1.3,269.6,0.00,20.4,26.8,"22:03:44",1
"17/08/13","22:20",0.0,23.8,82.5,1002.9,293.0,0.8,1.7,259.8,0.00,20.7,26.7,"22:12:08",1
"17/08/13","22:30",0.0,23.5,83.1,1002.6,306.7,0.6,1.2,334.5,0.00,20.5,26.6,"22:27:28",1
"17/08/13","22:40",0.0,23.3,84.3,1002.6,317.9,1.0,1.6,322.4,0.00,20.5,26.5,"22:35:04",1
"17/08/13","22:50",0.0,23.1,84.8,1002.9,315.4,1.0,1.3,356.5,0.00,20.4,26.6,"22:44:40",1
"17/08/13","23:00",0.0,22.9,85.6,1002.9,303.0,0.8,1.3,318.7,0.00,20.4,26.4,"22:51:12",1
"17/08/13","23:10",0.0,22.6,86.5,1002.9,302.0,0.6,1.2,325.2,0.00,20.3,26.3,"23:05:36",1
"17/08/13","23:20",0.0,22.5,86.9,1002.4,305.2,1.2,2.4,321.8,0.00,20.2,26.2,"23:12:08",1
"17/08/13","23:30",0.0,22.7,86.8,1002.9,331.7,1.1,1.9,325.1,0.00,20.4,26.2,"23:25:36",1
"17/08/13","23:40",0.0,22.7,86.8,1002.6,328.2,1.2,1.8,313.0,0.00,20.4,26.2,"23:38:56",1
"17/08/13","23:50",0.0,22.7,86.8,1002.6,327.9,1.6,2.5,332.7,0.00,20.4,26.0,"23:48:40",1
"17/08/13","24:00",0.0,22.9,86.4,1002.4,331.1,1.5,2.1,338.8,0.00,20.5,25.9,"23:53:36",1
